This is the latest recevied weather packets stored in our database for station/object W5SDC. If no packets are shown the sender has not sent any weather packets the latest 10 day(s).
| Time | Temp. | Humidity | Pressure | Rain* | Wind** | Luminosity | Snow |
|---|---|---|---|---|---|---|---|
| 1777194618 | 22.78° C | 96% | 1007.9 hPa | 0 mm | - | - | - |
| 1777192235 | 22.78° C | 97% | 1007.9 hPa | 0 mm | - | - | - |
| 1777191922 | 22.78° C | 97% | 1008 hPa | 0 mm | - | - | - |
| 1777190730 | 22.78° C | 97% | 1007.9 hPa | 0 mm | - | - | - |
| 1777188621 | 22.78° C | 97% | 1007.8 hPa | 0 mm | - | - | - |
| 1777187742 | 22.78° C | 96% | 1008.2 hPa | 0 mm | - | - | - |
| 1777187137 | 22.78° C | 96% | 1008.3 hPa | 0 mm | - | - | - |
| 1777186823 | 22.78° C | 95% | 1008.2 hPa | 0 mm | - | - | - |
| 1777185319 | 23.33° C | 94% | 1008.2 hPa | 0 mm | - | - | - |
| 1777182018 | 23.89° C | 90% | 1008.2 hPa | 0 mm | - | - | - |
| 1777181724 | 23.89° C | 90% | 1008.3 hPa | 0 mm | - | - | - |
| 1777181119 | 24.44° C | 89% | 1008.3 hPa | 0 mm | - | - | - |
| 1777179926 | 24.44° C | 88% | 1008.3 hPa | 0 mm | - | - | - |
| 1777177524 | 25° C | 87% | 1008 hPa | 0 mm | - | - | - |
| 1777175433 | 26.11° C | 85% | 1007.8 hPa | 0 mm | - | - | - |
| 1777173617 | 26.67° C | 81% | 1007.6 hPa | 0 mm | - | - | - |
| 1777173030 | 26.67° C | 80% | 1007.7 hPa | 0 mm | - | - | - |
| 1777171819 | 26.67° C | 79% | 1007.5 hPa | 0 mm | - | - | - |
| 1777170627 | 26.67° C | 79% | 1007.1 hPa | 0 mm | - | - | - |
| 1777169416 | 27.22° C | 78% | 1006.6 hPa | 0 mm | - | - | - |
| 1777168224 | 27.22° C | 76% | 1006.4 hPa | 0 mm | - | - | - |
| 1777167619 | 27.78° C | 75% | 1006.3 hPa | 0 mm | - | - | - |
| 1777167346 | 27.78° C | 75% | 1006.2 hPa | 0 mm | - | - | - |
| 1777167032 | 27.78° C | 75% | 1006.2 hPa | 0 mm | - | - | - |
| 1777166720 | 27.78° C | 74% | 1006.2 hPa | 0 mm | - | - | - |
* Rain latest hour (hover to see other rain measurements)
** Current wind speed in m/s (hover to see current wind gust speed)